FENGYUN 1C DEB, 43213

Orbit data source: Space-Track

FENGYUN 1C DEB, 43213 is space debris in SSO originally from a launch on Mon, 10 May 1999 UTC launched from the Taiyaun Space Center, China (TSC). Fengyun 1C debris stems from the Chinese weather satellite Fengyun-1C, which was intentionally destroyed by a Chinese anti-satellite missile in 2007. This event dramatically increased the amount of space debris, with thousands of trackable fragments posing hazards to satellites and human spaceflight. The Fengyun 1C debris cloud has become a focal point in discussions about space sustainability and the need for international regulations to prevent the creation of new debris.

Loading next visibility...
Identifier
43213, 1999-025EYM
Orbit
SSO
Country
Flag of CNCN / PRC
Related business
Manufacturer
Unknown
Mission
Spacecraft
Bus & Motor
Unknown
Mass
Unknown
Launch date (UTC)
1999-05-10 (27 years ago)
Launch vehicle
Unknown
Launch site
Taiyaun Space Center, China (TSC)
Object type
Payload
Rocket body
Debris
Shape & HBR
Unknown shape, 0.1 m
Radar Cross Section
Small (<0.1 m²)

Expand to show TLE details & history
Last TLE update: 2 days ago

TLE from 2 days ago
0 FENGYUN 1C DEB
1 43213U 99025EYM 25345.64964260  .00005369  00000-0  23267-2 0  9999
2 43213  98.7346  50.0589 0055048 230.6376 128.9918 14.23842990403577
Epoch: 2025-12-11T15:35Z
TLE epoch observation values (Epoch: 2025-12-11T15:35:29.120Z)
Latitude
-0.00008°
Longitude
95.585°
Altitude
840.346 km
Speed
7.42 km/s
True Right ascension
03h 20m 14s
True Declination
0° 00' 00"
Sunlit
Object was in full shadow at epoch
Visualization orbit readout
Latitude
Unknown
Longitude
Unknown
Altitude
Unknown
Speed
Unknown
Apparent Right ascension
Unknown
Apparent Declination
Unknown
Sunlit
N/A
Visualization observer readout
Local Sidereal Time
01:58:36
Azimuth
Unknown
Elevation
Unknown
Doppler factor
Unknown
Orbital elements
Apogee altitude
849.107 km
Perigee altitude
769.973 km
Semi-major axis
7,187.677 km
Eccentricity
0.0055
Inclination
98.7346°
RAAN
50.0589°
Arg. of periapsis
230.6376°
True anomaly
129.47996°
Mean anomaly
128.9918°
Eccentric anomaly
129.23609°
Mean motion
3.56172 °/min
Orbital period
101.07 mins
BSTAR
0.0023267
Loading maneuver chart data...
Computing Atmospheric mass density...

Documentation

Showing up to 5 results
|